Regional Weather Roundup
Issued by NWS

Home | Current Version | Previous Version | Text Only | Print | Product List | Glossary On
Versions: 1 2 3 4 5 6 7 8 9 10 11 12 13 14 15 16 17 18 19 20 21 22 23 24 25 26 27 28 29 30 31 32 33 34 35 36 37 38 39 40 41 42 43 44 45 46 47 48 49 50
000
ASPQ40 PGUM 021314
RWRPQ
WEATHER ROUNDUP FOR THE MARIANAS AND MICRONESIA
NATIONAL WEATHER SERVICE TIYAN GU
1100 PM CHST TUE JUN 02 2015

GUZ001>004-021400-
MARIANA ISLANDS-

CITY           SKY/WX    TMP DP  RH WIND       PRES   REMARKS
GUAM AIRPORT   PTCLDY    81  75  83 E10       29.90S
ANDERSEN AFB   MOCLDY    81  75  83 E15       29.91R
ROTA AIRPORT   NOT AVBL
TINIAN AP      NOT AVBL
SAIPAN AP      CLEAR     81  73  78 VRB6      29.91S

$$

PMZ161-021400-
REPUBLIC OF PALAU-

CITY           SKY/WX    TMP DP  RH WIND       PRES   REMARKS
KOROR AP       MOCLDY    79  77  94 N5        29.87R
KOROR WSO      CLOUDY    81  75  83 CALM      29.86R

$$

PMZ171>174-021400-
FEDERATED STATES OF MICRONESIA-

CITY           SKY/WX    TMP DP  RH WIND       PRES   REMARKS
YAP AIRPORT    PTCLDY    82  77  83 N8        29.85R HX  91
CHUUK AP       CLOUDY    82  75  78 VRB5      29.86S
POHNPEI AP     NOT AVBL
POHNPEI WSO    CLOUDY    79  75  89 NW3       29.90S
KOSRAE AP      NOT AVBL

$$

PMZ181-021400-
REPUBLIC OF THE MARSHALL ISLANDS-

CITY           SKY/WX    TMP DP  RH WIND       PRES   REMARKS
KWAJALEIN AP   CLEAR     81  73  78 E10       29.85F
MAJURO AP      NOT AVBL
MAJURO WSO     CLOUDY    82  77  83 E8        29.81F HX  91

$$



USA.gov is the U.S. government's official web portal to all federal, state and local government web resources and services.